Regional Weather Roundup
Issued by NWS

Home | Current Version | Previous Version | Text Only | Print | Product List | Glossary Off
Versions: 1 2 3 4 5 6 7 8 9 10 11 12 13 14 15 16 17 18 19 20 21 22 23 24 25 26 27 28 29 30 31 32 33 34 35 36 37 38 39 40 41 42 43 44 45 46 47 48 49 50

000
ASUS45 KPSR 020310
RWRAZ

ARIZONA HOURLY REGIONAL WEATHER ROUNDUP
NATIONAL WEATHER SERVICE PHOENIX AZ
800 PM MST TUE SEP 01 2015

NOTE: FAIR INDICATES FEW OR NO CLOUDS BELOW 12,000 FEET WITH NO
SIGNIFICANT WEATHER AND/OR OBSTRUCTIONS TO VISIBILITY.

AZZ001>003-036-020400-
NORTHWEST ARIZONA

CITY           SKY/WX    TMP DP  RH WIND       PRES   REMARKS
BULLHEAD CITY  PTCLDY    99  50  19 S10       29.77R
KINGMAN        CLEAR     82  43  25 S7        29.99R
$$

AZZ004>008-015-016-018-020400-
NORTH CENTRAL ARIZONA

CITY           SKY/WX    TMP DP  RH WIND       PRES   REMARKS
GRAND CANYON   PTCLDY    62  53  72 E5        30.25R
WILLIAMS       PTCLDY    68  50  52 S7        30.31R
PRESCOTT       MOCLDY    75  49  39 S6        30.14R
FLAGSTAFF      MOCLDY    63  52  67 SW5       30.30R
PAYSON         MOCLDY    75  52  43 W3        30.18R
PAGE           PTCLDY    81  51  35 SW7       30.03R
$$

AZZ009>014-017-020400-
NORTHEAST ARIZONA

CITY           SKY/WX    TMP DP  RH WIND       PRES   REMARKS
WINSLOW        MOCLDY    73  57  57 SW7       30.12R
SAINT JOHNS    MOCLDY    72  52  49 SW8       30.18R
WINDOW ROCK    MOCLDY    61  53  75 CALM      30.26R
SHOW LOW       MOCLDY    63  55  77 S7        30.26R
$$

AZZ023-020400-
GREATER PHOENIX AREA

CITY           SKY/WX    TMP DP  RH WIND       PRES   REMARKS
PHOENIX        MOCLDY    96  59  29 NE8       29.82R
BUCKEYE        MOCLDY    95  57  28 E9        29.82R
GLENDALE       MOCLDY    95  63  34 VRB6      29.84R
LUKE AFB       PTCLDY    95  60  31 NE2       29.82R
DEER VALLEY    PTCLDY    93  58  30 E3        29.85R
SCOTTSDALE     MOCLDY    93  58  30 CALM      29.88R
MESA-FALCON    MOCLDY    93  59  31 VRB7      29.85R
MESA-GATEWAY   PTCLDY    91  63  38 NE5       29.87R
CHANDLER       MOCLDY    91  63  38 NE7       29.84R
$$

AZZ027-028-020400-
SOUTHWEST MARICOPA COUNTY AND PINAL COUNTY

CITY           SKY/WX    TMP DP  RH WIND       PRES   REMARKS
CASA GRANDE    PTCLDY    91  63  38 CALM      29.86R
GILA BEND      MOCLDY    98  54  22 SW12      29.80R
$$

AZZ503-504-507>509-020400-
SOUTHEAST ARIZONA

CITY           SKY/WX    TMP DP  RH WIND       PRES   REMARKS
TUCSON         CLOUDY    86  64  47 NE5       29.99R
DAVIS-MONTHAN  PTCLDY    85  64  49 NW2       29.98R
RYAN FIELD     MOCLDY    88  70  55 SE6       29.97R
NOGALES        CLOUDY    80  56  43 S3        30.10R
SIERRA VISTA   MOCLDY    78  51  38 W10       30.15R
DOUGLAS        CLOUDY    76  53  44 NE9       30.12R
SAFFORD        CLOUDY    80  65  59 NW6       30.00R
$$

AZZ020-021-025-026-031-020400-
SOUTHWEST ARIZONA

CITY           SKY/WX    TMP DP  RH WIND       PRES   REMARKS
YUMA           PTCLDY    93  52  24 S7        29.77R
$$

CAZ031-033-041-043-047-048-061-020400-
SOUTHERN CALIFORNIA

CITY           SKY/WX    TMP DP  RH WIND       PRES   REMARKS
DOWNTOWN L.A.  MOCLDY    71  61  70 CALM      29.90R
L.A. AIRPORT   MOCLDY    69  63  81 W10       29.91R
SAN DIEGO      MOCLDY    71  60  68 W5        29.94R
BURBANK        MOCLDY    71  61  70 S7        29.91R
ONTARIO        MOCLDY    73  60  63 SW9       29.91R
RIVERSIDE      MOCLDY    73  60  63 W7        29.91R
PALM SPRINGS   MOCLDY    95  46  18 NW14G22   29.78R
EL CENTRO NAS  PTCLDY    94  45  18 S10       29.75R
IMPERIAL       CLEAR     97  47  18 SE13      29.72R
BLYTHE         PTCLDY    99  52  20 SW12      29.75R
NEEDLES        PTCLDY    99  53  21 SW7       29.78R
$$

NVZ020-UTZ003-020400-
SOUTHERN NEVADA-UTAH

CITY           SKY/WX    TMP DP  RH WIND       PRES   REMARKS
LAS VEGAS      PTCLDY    94  50  22 SW7       29.80R
SALT LAKE CITY PTCLDY    83  38  20 S9        29.89R
$$

NMZ009-TXZ055-020400-
NEW MEXICO-WEST TEXAS

CITY           SKY/WX    TMP DP  RH WIND       PRES   REMARKS
ALBUQUERQUE    MOCLDY    79  43  27 S7        30.15R
EL PASO        MOCLDY    88  43  20 SW5       30.02R
$$


........................KEY........................
SKY/WX - SKY CONDITION/WEATHER
TMP    - TEMPERATURE IN FAHRENHEIT
DP     - DEW POINT IN FAHRENHEIT
RH     - RELATIVE HUMIDITY IN PERCENT
WIND   - DIRECTION AND SPEED IN MILES PER HOUR (MPH)
VRB    - VARIABLE WIND DIRECTION
PRES   - MEAN SEA LEVEL PRESSURE IN INCHES OF MERCURY
         F - FALLING PRESSURE   R - RISING PRESSURE
         S - STEADY PRESSURE
VSB    - VISIBILITY IN MILES
HX     - HEAT INDEX IN FAHRENHEIT
WCI    - WIND CHILL INDEX IN FAHRENHEIT
TC     - TEMPERATURE IN CELSIUS WHICH IS ALSO KNOWN AS
         TEMPERATURE IN CENTIGRADE
AFB    - AIR FORCE BASE
         LUKE AFB IS LUKE AIR FORCE BASE
         DAVIS-MONTHAN IS DAVIS-MONTHAN AIR FORCE BASE
NAS    - NAVAL AIR STATION
         EL CENTRO NAS IS EL CENTRO NAVAL AIR STATION
N/A    - NOT AVAILABLE




USA.gov is the U.S. government's official web portal to all federal, state and local government web resources and services.